Date,TemperatureHighF,TemperatureAvgF,TemperatureLowF,DewpointHighF,DewpointAvgF,DewpointLowF,HumidityHigh,HumidityAvg,HumidityLow,PressureMaxIn,PressureMinIn,WindSpeedMaxMPH,WindSpeedAvgMPH,GustSpeedMaxMPH,PrecipitationSumIn
2013-2-1,40.3,30.7,22.3,18.6,7.1,-3.5,62,38,24,30.53,30.26,11,4,16,0.00
2013-2-2,59.2,41.2,27.1,33.6,26.4,16.5,75,57,35,30.26,30.14,8,2,8,0.00
2013-2-3,61.2,46.9,33.4,36.3,27.1,19.9,78,50,22,30.26,30.06,14,2,17,0.00
2013-2-4,51.1,47.0,43.3,43.6,37.1,28.2,89,69,51,30.07,29.88,6,1,7,0.02
2013-2-5,66.2,47.5,34.2,48.7,40.6,31.8,96,79,47,30.05,29.92,7,2,7,0.01
2013-2-6,57.7,50.5,41.5,44.8,41.1,34.8,92,71,55,30.17,30.01,11,4,14,0.00
2013-2-7,62.2,54.5,47.5,54.0,48.1,40.6,92,79,68,30.02,29.87,8,2,10,0.14
2013-2-8,55.4,47.9,37.2,50.8,37.6,30.7,89,69,45,30.29,29.96,14,4,14,0.06
2013-2-9,45.5,39.8,32.7,39.2,33.0,27.4,85,77,64,30.30,29.96,11,4,13,0.02
2013-2-10,71.8,57.6,43.7,59.2,47.6,34.3,93,71,39,29.97,29.68,11,4,13,0.32
2013-2-11,60.6,52.9,40.3,34.9,31.5,25.9,76,46,29,30.19,30.08,6,2,8,0.00
2013-2-12,44.8,41.5,35.2,39.3,35.4,28.7,89,79,65,30.14,29.89,11,5,12,0.15
2013-2-13,53.2,43.6,38.5,38.9,36.1,33.7,89,76,52,30.06,29.89,11,4,11,0.04
2013-2-14,66.4,48.9,32.5,39.2,34.1,28.5,86,61,32,30.09,29.99,8,2,8,0.00
2013-2-15,51.4,45.9,35.4,37.7,27.8,15.5,82,50,36,30.30,30.10,9,4,9,0.00
2013-2-16,45.5,37.4,30.4,25.0,18.9,11.7,61,48,25,30.34,30.22,11,3,11,0.00
2013-2-17,63.5,47.8,35.1,38.9,28.3,19.6,67,48,30,30.22,29.98,8,3,8,0.00
2013-2-18,61.0,54.2,43.2,53.7,46.4,36.4,88,75,56,30.03,29.67,11,5,15,0.25
2013-2-19,54.1,42.8,31.6,36.8,25.0,21.2,81,51,31,30.31,30.04,9,3,13,0.00
2013-2-20,34.5,32.7,31.1,25.9,21.3,11.6,79,63,40,30.36,30.16,11,3,11,0.01
2013-2-21,34.9,33.0,31.3,32.0,28.7,24.5,90,84,75,30.16,29.76,11,3,13,0.01
2013-2-22,46.2,38.0,33.1,33.4,30.1,25.7,92,75,45,30.12,29.90,12,3,16,0.04
2013-2-23,52.5,39.3,27.9,32.2,27.8,22.2,84,65,44,30.10,29.96,8,2,11,0.00
2013-2-24,57.6,44.2,29.3,36.3,31.6,25.2,85,63,42,30.08,29.88,12,5,13,0.00
2013-2-25,51.1,45.7,43.5,43.9,35.6,29.7,91,69,51,29.88,29.37,17,6,21,0.76
2013-2-26,44.6,41.9,39.9,42.2,36.0,31.6,92,80,67,29.88,29.37,17,6,19,0.02
2013-2-27,49.8,41.8,36.9,35.3,31.2,24.9,79,66,53,30.06,29.86,14,5,14,0.00
2013-2-28,49.6,43.0,32.4,30.9,28.5,24.2,74,57,48,30.13,30.05,12,5,14,0.00